Satellite-Ground Cal/Val Site Overpasses Predictions

Prediction of Satellite NPP Overpassing Cal/Val Site: Antarctic Dome C

Ground Cal/Val Site Location: Latitude: -75.10, Longitude: 123.35; Satellite-Ground Site NADIR distance within 100 km.

Table of predicted overpasses for the next 14.0 days since TLE Epoch: 12/10/2022
Interval Starting Time Ending Time Minimum Distance Time Minimum Distance (km)
1 12/10/2022 07:32:14 12/10/2022 07:32:43 12/10/2022 07:32:28 5.07
2 12/13/2022 14:55:45 12/13/2022 14:56:14 12/13/2022 14:56:00 22.25
3 12/14/2022 14:37:05 12/14/2022 14:37:20 12/14/2022 14:37:12 84.73
4 12/15/2022 07:38:39 12/15/2022 07:39:06 12/15/2022 07:38:52 32.16
5 12/16/2022 07:19:55 12/16/2022 07:20:13 12/16/2022 07:20:04 78.01
6 12/18/2022 15:02:12 12/18/2022 15:02:35 12/18/2022 15:02:24 59.61
7 12/19/2022 14:43:23 12/19/2022 14:43:48 12/19/2022 14:43:36 49.45
8 12/20/2022 07:45:04 12/20/2022 07:45:26 12/20/2022 07:45:15 67.69
9 12/21/2022 07:26:14 12/21/2022 07:26:41 12/21/2022 07:26:27 40.23
